Regional Weather Roundup
Issued by NWS Sioux Falls, SD

Home | Current Version | Previous Version | Graphics & Text | Print | Product List | Glossary On
Versions: 1 2 3 4 5 6 7 8 9 10 11 12 13 14 15 16 17 18 19 20 21 22 23 24 25 26 27 28 29 30 31 32 33 34 35 36 37 38 39 40 41 42 43 44 45 46 47 48 49 50
000
ASUS43 KFSD 270610
RWRFSD

WEATHER ROUNDUP FOR SE SOUTH DAKOTA/SW MINNESOTA/NW IOWA
NATIONAL WEATHER SERVICE SIOUX FALLS SD
100 AM CDT THU APR 27 2017

NOTE: "FAIR" INDICATES FEW OR NO CLOUDS BELOW 12,000 FEET WITH NO
SIGNIFICANT WEATHER AND OR OBSTRUCTIONS TO VISIBILITY.


SDZ038>040-050-052>070-270700-
SOUTHEAST SOUTH DAKOTA

CITY           SKY/WX    TMP DP  RH WIND       PRES   REMARKS
BROOKINGS      CLOUDY    28  23  81 N12       29.65F WCI  18
CHAMBERLAIN    CLEAR     28  26  92 CALM      29.74R
6HR MIN TEMP:  28; 6HR MAX TEMP:  45;

HURON          CLOUDY    30  25  81 N12       29.73S WCI  20
6HR MIN TEMP:  30; 6HR MAX TEMP:  34;

MADISON        CLOUDY    28  28 100 NW13      29.66F WCI  18
MITCHELL       CLOUDY    33  27  78 N9        29.73F WCI  25
6HR MIN TEMP:  33; 6HR MAX TEMP:  37;

SIOUX FALLS    CLOUDY    32  26  78 NW14      29.65F WCI  22
6HR MIN TEMP:  32; 6HR MAX TEMP:  35;

WINNER         FAIR      29  24  82 E3        29.73R
YANKTON        CLOUDY    34  25  69 NW10      29.70F WCI  26
$$

MNZ071-072-080-081-089-090-097-098-270700-
SOUTHWEST MINNESOTA

CITY           SKY/WX    TMP DP  RH WIND       PRES   REMARKS
FAIRMONT       CLOUDY    31  30  96 NW17      29.61S WCI  19
JACKSON        CLOUDY    30  28  93 NW18      29.62R WCI  18
LUVERNE        CLOUDY    30  27  86 N14       29.64F WCI  20
MARSHALL       CLOUDY    30  27  88 NW20      29.62F WCI  17
6HR MIN TEMP:  29; 6HR MAX TEMP:  31; 6HR PCP: TRACE;

MONTEVIDEO     CLOUDY    30  30 100 N12       29.63F FOG     WCI  21
REDWOOD FALLS  CLOUDY    32  28  85 NW10      29.61F WCI  24
TRACY          CLOUDY    31  29  92 NW14      29.62F WCI  20
WINDOM         PTCLDY    30  28  93 NW17      29.61S WCI  18
WORTHINGTON    CLOUDY    29  26  89 NW15      29.63R WCI  18
$$

IAZ001>003-012>014-020>022-031-032-NEZ013-014-SDZ071-270700-
NORTHWEST IOWA

CITY           SKY/WX    TMP DP  RH WIND       PRES   REMARKS
ESTHERVILLE    CLOUDY    30  30 100 NW15      29.61S WCI  19
ORANGE CITY    CLOUDY    32  28  86 N10       29.65R WCI  24
SIOUX CITY     CLOUDY    35  29  78 NW12      29.68R WCI  27
6HR MIN TEMP:  35; 6HR MAX TEMP:  41;

SPENCER        CLOUDY    32  28  85 NW15      29.64R WCI  22
6HR MIN TEMP:  32; 6HR MAX TEMP:  37;

STORM LAKE     CLOUDY    32  30  93 NW13      29.64R WCI  22
$$

ABBREVIATIONS USED IN REMARKS
   TC - TEMPERATURE IN CELSIUS
  WCI - WIND CHILL INDEX
   HX - HEAT INDEX
  VSB - VISIBILITY




USA.gov is the U.S. government's official web portal to all federal, state and local government web resources and services.